Location: Unspecified
(47.4992°N, 121.7766°W)
Time: 15:56:26
(UTC-07:00)

Okean 3 - Pass Details

Date: 07 August 2024
Orbit: 557 x 581 km, 82.5° (Epoch: 08 September)

Event Time Altitude Azimuth Distance (km) Brightness Sun altitude
Rises 04:20:26 0° 333° (NNW) 2,758 7.1 -13.7°
Reaches altitude 10° 04:23:24 10° 310° (NW) 1,853 5.9 -13.4°
Maximum altitude 04:25:43 15° 275° (W) 1,556 5.2 -13.1°
Enters shadow 04:26:19 14° 265° (W) 1,576 5.2 -13.0°
